Temperature
9 9 9 9 9 9 9 9 9 9 9 9 9 9 9 9 9 9 10 10 10 9 9 9 9 10 10 10 10 10 10 10 10 10 10 10 10 10 10 10 10 10 10
8 8 8 8 8 8 8 8 8 8 8 9 9 9 9 9 9 9 9 9 9 9 9 9 9 9 9 9 9 9 9 9 10 10 10 10 10 10 10 10 10 10 10
8 8 8 8 8 8 8 8 8 8 8 8 8 8 8 8 8 8 8 9 9 9 9 9 9 9 9 9 9 9 9 9 9 9 9 9 9 9 9 9 9 9 10
7 7 7 7 7 7 7 7 7 7 7 7 7 8 8 8 8 8 8 8 8 8 8 8 8 8 8 8 8 8 8 8 8 9 9 9 9 9 9 9 9 9 9
6 6 6 7 7 7 7 7 7 7 7 7 7 7 7 7 7 7 7 7 7 7 8 8 8 8 8 8 8 8 8 8 8 8 8 8 8 8 8 9 9 9 9
6 6 6 6 6 6 6 6 6 6 6 6 6 6 6 6 6 6 7 7 7 7 7 7 7 7 7 7 7 7 7 7 7 7 8 8 8 8 8 8 8 8 8
5 5 5 5 5 5 5 5 5 5 5 5 6 6 6 6 6 6 6 6 6 6 6 6 6 6 6 7 7 7 7 7 7 7 7 7 7 7 7 7 7 8 8
4 4 4 4 5 5 5 5 5 5 5 4 4 4 4 4 5 5 5 5 5 5 5 5 6 6 6 6 6 6 6 6 6 6 6 6 6 6 7 7 7 7 7
3 3 3 4 4 4 4 4 4 4 4 4 4 4 4 4 3 4 4 5 5 5 5 5 5 5 5 5 5 5 5 5 5 5 6 6 6 6 6 6 6 6 6
3 3 3 3 3 3 3 3 3 3 3 3 3 3 3 3 3 3 3 4 4 4 4 4 4 4 4 4 4 4 5 5 5 5 5 5 5 5 5 5 5 5 5
2 2 2 2 2 2 3 3 3 3 3 3 3 2 2 2 2 2 2 3 3 3 3 3 3 3 3 3 3 4 4 4 4 4 4 4 4 5 5 5 5 5 5
2 2 2 2 2 2 2 2 2 2 2 2 2 2 2 2 2 2 2 2 2 3 3 3 3 3 3 3 3 3 3 3 3 3 4 4 4 4 4 4 4 4 4
1 1 1 1 1 1 1 1 2 2 1 1 1 1 1 1 1 1 1 1 1 1 2 2 2 2 2 2 2 2 2 2 3 3 3 3 3 4 4 4 4 4 4
1 1 1 1 1 1 1 1 1 1 1 1 1 1 1 1 1 1 0 0 -0 -0 0 1 1 1 1 1 1 1 1 1 2 2 2 3 3 3 3 3 3 3 3
0 0 0 0 0 0 0 -0 -0 0 0 0 0 0 0 0 0 -0 -0 -0 -1 -1 -1 -0 0 1 0 0 0 0 1 1 1 1 2 2 2 2 2 2 2 3 3
-0 -0 -0 -0 -0 -1 -1 -1 -1 -1 -1 -1 -1 -1 -1 -1 -1 -1 -1 -1 -1 -1 -1 -1 -0 -0 -0 -0 -0 -0 0 0 0 0 1 1 1 1 1 2 2 2 2
-1 -1 -1 -1 -1 -1 -1 -1 -1 -1 -1 -1 -1 -1 -1 -1 -1 -1 -1 -1 -2 -2 -2 -1 -1 -1 -1 -1 -1 -1 -1 -0 -0 0 0 0 0 1 1 1 1 1 1
-1 -1 -1 -1 -2 -1 -2 -2 -2 -2 -2 -2 -2 -2 -2 -2 -2 -2 -2 -2 -2 -2 -2 -2 -2 -2 -2 -2 -2 -2 -1 -1 -1 -1 -0 -0 -0 -0 0 0 0 0 1
-2 -2 -2 -2 -2 -2 -2 -2 -2 -2 -2 -2 -2 -2 -2 -2 -2 -2 -3 -3 -3 -3 -3 -3 -3 -2 -2 -2 -2 -2 -2 -2 -1 -1 -1 -1 -1 -1 -1 -1 -0 -0 -0
-3 -3 -3 -2 -2 -2 -2 -2 -3 -3 -3 -3 -3 -3 -3 -3 -3 -3 -3 -3 -3 -3 -4 -4 -3 -3 -3 -3 -3 -3 -3 -2 -2 -2 -2 -2 -2 -2 -1 -1 -1 -1 -1
-3 -3 -3 -3 -3 -3 -3 -3 -3 -3 -3 -3 -3 -3 -3 -3 -4 -4 -4 -4 -4 -4 -4 -4 -4 -4 -4 -4 -3 -3 -4 -3 -3 -3 -2 -2 -2 -2 -2 -2 -2 -1 -1
-4 -4 -4 -4 -4 -3 -3 -4 -4 -4 -4 -4 -4 -4 -4 -4 -4 -4 -4 -4 -4 -4 -4 -4 -5 -5 -4 -4 -4 -4 -4 -4 -4 -3 -3 -3 -3 -3 -3 -2 -2 -2 -2
-5 -5 -5 -4 -4 -4 -4 -4 -4 -5 -5 -5 -5 -4 -4 -4 -5 -5 -5 -5 -5 -5 -5 -5 -5 -5 -5 -4 -4 -5 -5 -5 -4 -4 -4 -4 -3 -4 -3 -3 -3 -3 -3
-6 -6 -5 -5 -5 -5 -5 -5 -5 -5 -5 -5 -5 -5 -5 -5 -5 -5 -5 -5 -5 -5 -5 -5 -5 -5 -5 -5 -5 -5 -5 -5 -5 -5 -5 -5 -4 -4 -4 -4 -4 -3 -3
-6 -6 -6 -6 -6 -5 -5 -5 -6 -6 -6 -6 -6 -6 -6 -6 -5 -6 -6 -6 -6 -6 -6 -6 -6 -6 -6 -6 -6 -6 -6 -6 -6 -6 -6 -6 -5 -5 -5 -4 -4 -4 -4
-7 -7 -7 -7 -6 -6 -6 -6 -6 -7 -7 -7 -7 -7 -6 -6 -6 -6 -6 -6 -6 -6 -6 -6 -6 -6 -6 -6 -6 -6 -6 -7 -7 -7 -6 -6 -6 -6 -6 -5 -5 -5 -5
Wind_Speed
5 6 6 7 7 8 7 7 7 7 7 8 8 8 7 7 7 7 6 7 7 7 7 7 6 6 6 6 6 5 5 4 5 5 5 5 5 6 6 6 5 5 4
5 4 5 5 6 6 6 6 6 6 5 6 6 6 6 6 6 6 7 6 7 7 7 6 6 5 5 5 6 6 5 5 4 4 4 5 4 4 5 5 5 5 4
5 4 4 4 4 5 6 6 6 6 5 5 5 5 5 6 6 6 6 6 6 6 7 6 6 5 4 5 5 5 5 4 4 3 3 3 4 3 4 4 4 4 4
5 4 3 3 4 5 5 4 4 3 3 3 3 3 4 4 5 5 5 6 6 6 6 7 6 6 5 4 4 4 4 3 3 3 2 2 2 2 3 2 2 2 2
4 4 3 3 4 4 4 3 3 2 2 2 2 2 3 3 4 4 5 5 5 6 6 7 7 7 6 5 4 4 4 3 2 2 2 1 1 1 2 2 1 0 1
3 3 3 3 3 3 2 2 2 2 2 2 2 2 2 2 3 3 3 4 5 5 6 6 6 5 5 5 5 4 4 3 2 2 2 1 2 1 1 1 1 1 1
3 3 2 2 2 2 2 2 2 2 2 2 2 2 2 2 2 2 3 4 4 4 5 5 5 5 4 4 4 4 4 3 3 3 3 3 2 2 2 2 2 2 2
4 3 2 2 1 1 2 2 2 2 1 1 1 1 1 2 2 1 2 2 2 4 4 4 5 5 4 4 4 4 4 3 3 3 4 3 3 3 4 4 4 3 3
4 3 3 2 2 2 3 3 3 3 2 0 1 1 2 2 2 2 1 1 1 2 3 4 3 3 3 3 3 3 3 4 4 4 4 4 3 3 4 5 5 5 4
4 4 4 3 3 2 2 4 4 2 3 2 0 0 0 1 1 1 2 1 1 1 2 2 2 2 2 2 3 3 3 4 5 5 6 5 4 4 5 5 5 5 5
3 4 5 4 4 3 3 3 4 3 3 3 2 1 0 1 1 1 3 3 2 2 2 2 2 2 2 2 2 3 3 5 5 6 7 7 5 5 5 5 5 5 5
3 4 5 5 4 4 4 4 4 5 4 4 3 3 2 2 2 1 2 3 3 3 3 2 2 2 2 2 2 4 4 5 6 7 8 8 6 6 5 6 6 6 6
4 5 5 5 5 5 5 5 4 5 5 5 5 4 3 2 2 2 2 2 3 3 2 2 3 3 2 1 2 4 4 5 6 7 8 7 7 7 7 6 6 6 6
5 5 6 6 6 6 6 5 4 4 5 5 6 5 3 3 3 3 2 2 2 3 3 4 2 3 2 2 3 4 4 6 7 7 8 7 7 7 7 7 7 6 7
4 6 6 6 6 7 7 6 4 5 5 6 6 6 5 4 4 3 3 3 3 4 4 4 3 2 3 3 4 4 5 6 7 8 8 8 7 6 6 6 6 6 6
5 5 6 6 6 7 7 6 5 5 5 5 5 6 6 4 4 4 4 3 3 4 4 3 3 3 3 4 5 5 5 7 8 8 8 8 8 7 6 6 6 6 6
6 6 6 6 6 7 6 6 6 6 7 6 6 7 7 5 5 4 4 4 3 3 5 5 4 3 3 3 5 6 6 6 6 8 8 8 7 7 7 6 6 6 6
7 7 7 7 7 7 7 7 7 7 8 8 7 7 8 6 6 5 5 5 5 4 5 6 4 4 4 4 4 4 5 5 6 8 8 8 8 7 7 6 7 6 7
7 7 7 8 8 7 7 7 8 8 8 8 8 8 8 8 8 6 6 6 5 5 4 5 5 4 3 3 3 4 4 4 5 6 7 7 7 7 6 6 7 7 7
7 7 7 8 8 8 8 8 8 8 8 8 8 8 8 9 9 8 7 7 6 5 5 5 5 4 3 3 3 3 4 3 3 4 6 7 7 7 7 7 7 8 8
7 7 6 7 6 7 8 8 8 8 8 8 7 8 8 10 12 10 8 7 7 6 5 5 5 4 4 4 4 3 4 4 4 4 3 4 4 4 5 7 7 8 9
6 6 6 7 7 7 11 13 10 8 8 8 8 7 8 9 12 13 13 12 11 9 8 7 6 7 6 5 4 4 4 4 4 3 2 4 3 4 5 6 8 10 10
5 6 7 7 8 9 11 13 13 8 8 8 8 7 7 8 10 8 10 11 11 12 12 9 9 9 8 7 6 6 6 5 5 3 3 5 3 5 5 8 10 11 11
5 6 7 7 8 9 12 12 12 8 7 8 8 8 8 8 8 9 8 7 7 8 9 8 8 8 8 7 7 7 5 4 4 4 4 5 4 5 6 7 10 11 11
5 6 6 7 8 8 11 12 11 6 6 7 8 8 9 9 12 12 9 8 7 7 9 10 10 9 10 10 8 4 4 4 5 4 3 3 4 4 5 6 8 10 11
6 6 7 6 7 8 11 12 11 6 7 7 7 8 11 11 13 13 10 9 9 8 6 5 6 7 7 8 9 7 6 5 4 4 3 3 3 2 4 4 4 5 7
Wind_Direction
71 67 65 65 65 69 69 65 64 63 59 55 58 58 50 51 50 41 40 52 60 64 70 72 75 73 67 67 72 71 68 74 80 74 72 77 81 77 76 78 81 84 89
78 78 72 67 65 71 74 74 71 69 63 59 53 52 52 48 51 47 42 43 52 59 61 64 65 69 66 67 69 68 66 61 68 72 71 67 73 86 83 74 74 78 77
81 81 81 70 66 77 78 75 70 69 65 55 47 43 48 47 48 49 50 47 45 49 55 54 52 50 54 62 65 61 57 53 54 66 71 65 62 76 86 75 72 69 69
90 82 80 74 77 86 81 78 71 68 60 47 37 32 36 42 48 49 54 53 50 44 44 45 42 37 35 45 51 47 46 42 39 47 57 50 45 63 71 79 74 62 61
104 95 82 83 94 86 77 82 71 73 72 51 32 25 28 39 43 48 54 54 57 53 46 39 38 37 33 33 34 30 28 27 17 15 19 359 336 27 57 58 66 35 12
126 112 92 80 104 98 85 83 86 68 81 70 57 32 12 28 45 46 47 52 55 49 45 40 36 26 25 24 23 17 13 18 3 339 328 328 296 301 315 354 5 301 284
149 135 108 90 101 134 145 122 104 93 63 45 59 36 5 11 51 42 44 51 46 39 40 39 34 28 19 9 7 6 0 2 357 334 321 300 293 282 285 291 305 311 281
164 170 153 159 124 144 150 146 122 124 78 54 76 83 3 332 342 358 19 46 38 39 33 22 23 24 27 25 8 1 353 341 338 329 326 311 302 295 273 274 279 287 291
186 187 183 173 168 163 191 186 178 156 162 203 57 124 148 224 302 310 329 357 20 25 12 5 7 15 17 19 3 356 349 333 319 307 311 309 313 315 303 278 276 275 277
206 202 193 189 189 188 207 202 184 181 166 184 235 11 135 158 191 270 298 307 334 337 334 340 342 345 349 1 343 342 332 324 311 307 301 297 299 308 314 293 285 289 287
216 217 205 201 204 206 211 217 194 186 186 188 187 193 78 353 215 205 259 277 297 297 323 313 300 310 313 328 328 326 323 315 310 304 299 295 290 297 301 320 303 292 294
223 228 220 211 212 215 217 220 209 196 197 196 194 193 193 202 214 212 245 264 278 288 302 301 290 282 285 299 306 320 324 315 312 312 305 298 298 290 292 299 309 294 287
226 224 229 224 221 223 223 220 214 211 200 199 202 210 209 216 213 226 238 263 281 294 286 275 276 270 279 289 312 317 322 318 315 313 308 303 301 289 287 294 301 302 288
225 222 226 230 229 224 222 215 218 221 211 208 213 210 215 218 214 216 217 224 271 281 271 263 275 261 283 296 301 311 318 310 306 308 307 301 302 295 288 286 288 298 297
231 221 222 224 228 224 219 212 220 220 218 217 216 213 218 221 218 218 220 213 215 244 256 249 252 259 270 275 291 304 307 301 299 298 298 295 293 290 292 287 287 293 301
229 222 223 221 224 227 220 212 221 220 217 224 220 211 216 219 215 217 223 227 226 227 247 247 251 275 279 274 280 285 288 294 293 289 288 287 281 280 283 282 280 288 297
222 223 222 221 221 223 219 214 217 218 217 224 224 215 219 212 214 217 219 223 229 223 245 266 270 268 262 260 278 279 275 273 277 281 281 277 272 272 273 274 278 287 295
226 223 220 221 223 222 218 216 217 218 218 221 224 221 221 218 217 216 217 223 225 223 233 257 270 264 264 254 258 267 279 270 269 280 279 268 267 268 271 274 275 280 287
230 226 220 221 222 221 220 224 222 220 222 225 222 222 221 213 219 220 217 220 225 231 233 241 257 264 269 261 270 277 278 273 272 276 273 265 264 269 271 273 276 276 282
229 227 226 226 226 224 223 225 226 223 222 227 227 225 223 216 217 217 219 218 219 225 228 232 247 256 263 260 249 260 276 270 274 276 267 268 270 270 272 273 274 275 278
236 233 230 231 231 227 224 220 221 223 220 224 228 229 230 227 223 220 220 213 211 218 221 229 237 247 246 245 241 242 262 277 277 261 260 257 257 259 270 273 273 272 276
239 235 231 230 231 234 233 229 225 221 221 222 227 230 233 235 231 232 232 226 218 216 219 226 236 234 236 238 245 244 254 267 271 245 248 266 248 252 259 262 269 272 272
240 238 235 231 233 238 237 235 230 224 220 221 223 225 233 235 230 227 231 232 234 234 227 224 230 231 230 228 229 242 245 254 258 259 263 268 256 258 258 265 271 272 272
243 243 241 235 236 241 237 239 236 229 220 221 221 221 225 230 228 223 222 224 229 234 233 232 231 232 233 228 225 234 246 257 267 259 246 259 258 260 270 265 270 270 270
250 247 244 238 237 243 239 237 237 227 224 225 225 224 223 227 232 226 219 218 226 237 240 240 239 236 235 234 227 222 233 246 263 257 240 250 262 274 272 266 268 268 269
255 250 250 244 239 241 241 236 233 227 225 227 228 227 229 230 232 232 221 212 219 226 223 226 235 239 233 231 231 222 220 234 256 256 231 234 258 272 278 261 253 264 272
Height
1530 1531 1532 1533 1534 1535 1536 1537 1538 1540 1541 1542 1543 1544 1545 1546 1547 1548 1549 1550 1551 1552 1552 1553 1554 1555 1555 1556 1556 1556 1557 1557 1558 1558 1558 1559 1559 1559 1560 1560 1560 1561 1562
1528 1530 1531 1531 1532 1533 1534 1535 1537 1538 1539 1540 1541 1543 1544 1545 1546 1546 1547 1548 1549 1550 1551 1552 1552 1553 1554 1554 1555 1555 1555 1556 1556 1556 1557 1558 1558 1558 1559 1559 1559 1559 1560
1526 1527 1529 1529 1530 1531 1533 1534 1535 1536 1537 1539 1540 1541 1542 1543 1544 1545 1545 1546 1547 1548 1549 1550 1550 1551 1552 1552 1553 1553 1554 1554 1554 1555 1556 1556 1557 1557 1557 1557 1558 1558 1558
1524 1525 1526 1527 1528 1529 1531 1532 1533 1534 1535 1536 1537 1539 1540 1541 1542 1543 1544 1544 1545 1546 1547 1547 1548 1549 1549 1550 1551 1551 1552 1552 1553 1553 1554 1554 1555 1555 1555 1556 1556 1556 1557
1521 1522 1524 1525 1526 1527 1528 1529 1531 1532 1533 1534 1535 1536 1537 1539 1540 1541 1541 1542 1543 1544 1544 1545 1546 1546 1547 1547 1548 1549 1549 1550 1551 1551 1552 1552 1552 1553 1553 1554 1554 1554 1554
1519 1520 1521 1522 1523 1524 1526 1527 1528 1529 1530 1531 1532 1534 1535 1536 1537 1538 1539 1539 1540 1541 1541 1542 1543 1543 1544 1545 1545 1546 1546 1547 1548 1549 1549 1550 1550 1550 1551 1551 1551 1551 1552
1515 1517 1518 1519 1520 1521 1523 1524 1525 1526 1527 1529 1529 1530 1532 1533 1534 1534 1535 1536 1537 1538 1538 1539 1539 1540 1541 1541 1542 1543 1543 1544 1545 1546 1546 1547 1547 1547 1548 1548 1549 1549 1549
1512 1513 1515 1516 1517 1519 1520 1521 1522 1523 1524 1526 1527 1527 1528 1530 1530 1531 1532 1533 1534 1535 1535 1536 1536 1537 1537 1538 1538 1539 1540 1541 1541 1542 1543 1543 1544 1544 1545 1545 1545 1546 1546
1509 1510 1511 1512 1513 1515 1516 1517 1519 1520 1521 1523 1524 1526 1526 1526 1526 1527 1527 1529 1530 1531 1532 1532 1533 1533 1534 1534 1535 1535 1536 1537 1537 1538 1539 1540 1540 1541 1541 1542 1542 1542 1543
1505 1506 1507 1509 1510 1511 1512 1513 1515 1516 1518 1519 1521 1522 1524 1524 1524 1523 1524 1525 1526 1527 1528 1528 1529 1529 1530 1530 1531 1531 1532 1532 1533 1534 1535 1536 1536 1537 1537 1538 1538 1539 1539
1500 1502 1503 1504 1506 1507 1508 1509 1511 1512 1513 1515 1516 1518 1519 1520 1521 1520 1519 1520 1521 1522 1523 1524 1525 1525 1526 1526 1527 1527 1527 1528 1529 1529 1530 1531 1531 1532 1533 1534 1534 1535 1535
1495 1497 1498 1500 1501 1502 1504 1505 1506 1507 1509 1511 1512 1514 1515 1516 1516 1517 1516 1515 1516 1517 1518 1519 1520 1521 1521 1522 1522 1522 1523 1524 1524 1525 1525 1526 1526 1528 1528 1529 1530 1530 1531
1490 1491 1493 1494 1496 1497 1499 1500 1501 1502 1504 1505 1507 1509 1510 1511 1512 1513 1513 1512 1512 1512 1513 1514 1515 1516 1517 1517 1518 1518 1518 1519 1519 1520 1520 1521 1521 1523 1524 1524 1525 1526 1527
1485 1486 1488 1488 1490 1492 1493 1494 1495 1496 1498 1499 1501 1503 1504 1506 1507 1508 1509 1509 1508 1507 1508 1509 1510 1511 1512 1512 1513 1513 1513 1514 1514 1515 1516 1516 1517 1518 1519 1519 1520 1521 1521
1479 1481 1482 1483 1484 1486 1487 1488 1489 1490 1492 1494 1495 1497 1498 1500 1501 1503 1504 1505 1505 1503 1502 1503 1505 1506 1507 1507 1508 1508 1508 1509 1509 1510 1510 1511 1512 1513 1513 1514 1515 1515 1516
1474 1474 1476 1477 1478 1479 1480 1481 1482 1484 1485 1487 1489 1490 1492 1494 1495 1496 1498 1499 1499 1499 1498 1497 1499 1501 1501 1502 1503 1503 1503 1503 1504 1504 1505 1506 1507 1507 1508 1509 1509 1510 1510
1467 1468 1469 1470 1472 1473 1474 1475 1476 1477 1479 1480 1482 1484 1485 1487 1489 1490 1491 1492 1493 1494 1493 1492 1494 1495 1496 1497 1497 1498 1498 1498 1498 1499 1499 1500 1501 1502 1502 1503 1504 1505 1505
1461 1462 1463 1464 1465 1467 1468 1468 1469 1471 1472 1474 1476 1477 1479 1480 1482 1484 1485 1486 1487 1488 1488 1487 1488 1489 1490 1491 1492 1492 1492 1492 1492 1493 1493 1494 1495 1496 1497 1498 1498 1499 1499
1454 1455 1456 1457 1458 1459 1461 1462 1463 1465 1466 1468 1469 1471 1472 1474 1475 1477 1478 1479 1480 1482 1482 1482 1482 1483 1484 1485 1486 1486 1486 1486 1486 1487 1488 1489 1490 1490 1491 1492 1493 1493 1494
1447 1448 1449 1450 1451 1452 1454 1455 1457 1458 1459 1461 1462 1464 1465 1467 1468 1470 1472 1473 1474 1475 1476 1476 1477 1477 1478 1479 1480 1480 1480 1480 1481 1481 1482 1483 1484 1484 1485 1486 1487 1487 1488
1440 1441 1442 1443 1444 1445 1446 1448 1449 1451 1452 1454 1455 1457 1458 1460 1462 1464 1465 1466 1468 1469 1470 1470 1470 1471 1472 1473 1474 1474 1474 1475 1475 1476 1476 1477 1477 1478 1479 1479 1480 1481 1481
1434 1434 1435 1436 1437 1438 1439 1441 1443 1444 1446 1447 1448 1450 1452 1453 1455 1457 1459 1460 1462 1462 1463 1464 1464 1465 1465 1467 1468 1469 1469 1469 1469 1470 1470 1470 1471 1471 1472 1473 1474 1475 1475
1427 1427 1428 1429 1429 1431 1433 1434 1436 1437 1438 1440 1442 1443 1445 1446 1448 1450 1451 1453 1455 1456 1457 1458 1458 1459 1460 1461 1463 1463 1463 1463 1463 1464 1465 1463 1465 1465 1466 1467 1468 1468 1469
1420 1420 1420 1421 1423 1424 1426 1427 1429 1430 1431 1432 1434 1436 1438 1439 1441 1443 1444 1446 1447 1448 1450 1451 1451 1452 1454 1456 1457 1458 1458 1458 1457 1458 1459 1458 1458 1459 1459 1460 1461 1461 1462
1413 1413 1414 1415 1416 1417 1419 1420 1422 1423 1424 1425 1427 1429 1431 1432 1434 1436 1438 1439 1440 1441 1443 1444 1445 1446 1448 1449 1450 1451 1452 1452 1451 1452 1454 1453 1452 1452 1452 1453 1454 1454 1455
1407 1407 1407 1408 1409 1410 1412 1413 1415 1416 1417 1418 1420 1421 1424 1425 1427 1429 1431 1432 1433 1434 1436 1437 1439 1440 1441 1443 1444 1445 1446 1446 1446 1446 1447 1448 1447 1447 1446 1445 1447 1447 1447